Alexander City, AL

3:36 PM CST on December 08, 2019 (GMT -0600)
Russell

Weather History for KALX - October, 2019

Change the Weather History Date:

Friday, October 18, 2019

  Actual Average (WUND) Record (WUND)
Temperature  
Mean Temperature 55 °F -  
Max Temperature 65 °F - - (-1)
Min Temperature 45 °F - - (-1)
Degree Days  
Heating Degree Days 10    
Growing Degree Days 5 (Base 50)    
Moisture  
Dew Point 46 °F    
Average Humidity 71    
Maximum Humidity 97    
Minimum Humidity 48    
Precipitation  
Precipitation 0.00 in - - ()
Sea Level Pressure  
Sea Level Pressure 29.96 in    
Wind  
Wind Speed 2 mph (ENE)    
Max Wind Speed 8 mph    
Max Gust Speed -    
Visibility 10 miles    
Events      
Averages and records for this station are not official NWS values.
T = Trace of Precipitation, MM = Missing Value Source: NWS Daily Summary

Daily Weather History Graph

Daily Weather History Graph

Search for Another Location

Airport or City:

Astronomy

Oct. 18, 2019 Rise Set
Actual Time 6:50 AM CDT 6:07 PM CDT
Civil Twilight 6:25 AM CDT 6:32 PM CDT
Nautical Twilight 5:56 AM CDT 7:01 PM CDT
Astronomical Twilight 5:27 AM CDT 7:29 PM CDT
Moon 9:35 PM CDT (10/18) 11:10 AM CDT (10/18)
Length of Visible Light 12h 07m
Length of Day
11h 17m
Waning Gibbous, 78% of the Moon is Illuminated
Oct 18
Waning Gibbous
Oct 21
Last Quarter
Oct 27
New
Nov 4
First Quarter
Nov 12
Full

Hourly Weather History & Observations

Time (CDT) Temp. Windchill Dew Point Humidity Pressure Visibility Wind Dir Wind Speed Gust Speed Precip Events Conditions
12:15 AM 47.3 °F - 46.0 °F 95% 29.99 in 10.0 mi Calm Calm - N/A   Clear
12:35 AM 47.1 °F - 46.2 °F 97% 29.99 in 10.0 mi Calm Calm - N/A   Clear
12:55 AM 46.4 °F - 45.1 °F 95% 29.99 in 10.0 mi Calm Calm - N/A   Clear
1:15 AM 46.2 °F - 45.0 °F 95% 29.98 in 10.0 mi Calm Calm - N/A   Clear
1:35 AM 46.4 °F - 45.0 °F 95% 29.98 in 10.0 mi Calm Calm - N/A   Clear
1:55 AM 46.9 °F - 45.5 °F 95% 29.98 in 10.0 mi Calm Calm - N/A   Clear
2:15 AM 45.0 °F - 43.9 °F 96% 29.99 in 10.0 mi Calm Calm - N/A   Clear
2:35 AM 45.5 °F 44.2 °F 43.9 °F 94% 29.98 in 10.0 mi North 3.5 mph - N/A   Clear
2:55 AM 47.8 °F - 43.7 °F 86% 29.98 in 10.0 mi NNE 4.6 mph - N/A   Clear
3:15 AM 47.8 °F - 43.7 °F 86% 29.98 in 10.0 mi Calm Calm - N/A   Clear
3:35 AM 47.7 °F - 42.8 °F 83% 29.97 in 10.0 mi NNE 3.5 mph - N/A   Clear
3:55 AM 47.8 °F - 42.8 °F 83% 29.97 in 10.0 mi Calm Calm - N/A   Clear
4:15 AM 47.7 °F - 42.4 °F 82% 29.96 in 10.0 mi Calm Calm - N/A   Clear
4:35 AM 47.3 °F - 42.3 °F 83% 29.96 in 10.0 mi North 3.5 mph - N/A   Clear
4:55 AM 47.3 °F - 41.9 °F 82% 29.96 in 10.0 mi North 3.5 mph - N/A   Clear
5:15 AM 47.3 °F - 41.5 °F 80% 29.96 in 10.0 mi NNE 5.8 mph - N/A   Clear
5:35 AM 46.8 °F - 41.2 °F 81% 29.95 in 10.0 mi NNE 3.5 mph - N/A   Clear
5:55 AM 46.8 °F - 41.2 °F 81% 29.96 in 10.0 mi NNE 3.5 mph - N/A   Clear
6:15 AM 46.8 °F - 41.0 °F 80% 29.97 in 10.0 mi Calm Calm - N/A   Clear
6:35 AM 46.9 °F - 41.0 °F 80% 29.96 in 10.0 mi Calm Calm - N/A   Clear
6:55 AM 47.3 °F - 40.6 °F 78% 29.97 in 10.0 mi Calm Calm - N/A   Clear
7:15 AM 46.0 °F - 41.5 °F 84% 29.98 in 10.0 mi Calm Calm - N/A   Clear
7:35 AM 47.3 °F - 41.2 °F 79% 29.99 in 10.0 mi NNE 3.5 mph - N/A   Clear
7:55 AM 48.2 °F - 41.7 °F 78% 29.99 in 10.0 mi NNE 3.5 mph - N/A   Clear
8:15 AM 49.1 °F - 41.5 °F 75% 29.99 in 10.0 mi NNE 3.5 mph - N/A   Clear
8:35 AM 49.5 °F - 42.1 °F 76% 30.01 in 10.0 mi North 4.6 mph - N/A   Clear
8:55 AM 50.5 °F - 42.6 °F 74% 30.01 in 10.0 mi Calm Calm - N/A   Clear
9:15 AM 53.1 °F - 42.8 °F 68% 30.01 in 10.0 mi East 6.9 mph - N/A   Clear
9:35 AM 53.6 °F - 43.0 °F 67% 30.02 in 10.0 mi East 5.8 mph - N/A   Clear
9:55 AM 54.5 °F - 43.9 °F 67% 30.02 in 10.0 mi ENE 5.8 mph - N/A   Clear
10:15 AM 55.4 °F - 43.7 °F 65% 30.03 in 10.0 mi East 8.1 mph - N/A   Clear
10:35 AM 56.8 °F - 44.1 °F 62% 30.02 in 10.0 mi East 4.6 mph - N/A   Clear
10:55 AM 57.9 °F - 44.8 °F 62% 30.01 in 10.0 mi ENE 8.1 mph - N/A   Clear
11:15 AM 58.3 °F - 45.0 °F 61% 30.01 in 10.0 mi East 3.5 mph - N/A   Clear
11:35 AM 59.4 °F - 45.9 °F 61% 30.00 in 10.0 mi ENE 3.5 mph - N/A   Clear
11:55 AM 60.3 °F - 45.9 °F 59% 30.00 in 10.0 mi ENE 5.8 mph - N/A   Clear
12:15 PM 61.2 °F - 46.0 °F 58% 29.99 in 10.0 mi East 8.1 mph - N/A   Clear
12:35 PM 62.2 °F - 46.2 °F 56% 29.98 in 10.0 mi East 4.6 mph - N/A   Clear
12:55 PM 63.3 °F - 46.2 °F 54% 29.97 in 10.0 mi East 4.6 mph - N/A   Clear
1:15 PM 64.0 °F - 45.7 °F 51% 29.97 in 10.0 mi East 3.5 mph - N/A   Clear
1:35 PM 64.6 °F - 44.4 °F 48% 29.96 in 10.0 mi East 4.6 mph - N/A   Clear
1:55 PM 64.2 °F - 44.6 °F 49% 29.96 in 10.0 mi ESE 6.9 mph - N/A   Clear
2:15 PM 64.2 °F - 45.5 °F 51% 29.95 in 10.0 mi East 5.8 mph - N/A   Clear
2:35 PM 64.9 °F - 46.0 °F 50% 29.95 in 10.0 mi East 4.6 mph - N/A   Clear
2:55 PM 65.3 °F - 46.9 °F 51% 29.96 in 10.0 mi East 4.6 mph - N/A   Clear
3:15 PM 64.8 °F - 46.6 °F 52% 29.95 in 10.0 mi ESE 4.6 mph - N/A   Clear
3:35 PM 64.9 °F - 46.6 °F 51% 29.95 in 10.0 mi East 3.5 mph - N/A   Clear
4:15 PM 63.7 °F - 48.4 °F 57% 29.93 in 10.0 mi NE 3.5 mph - N/A   Clear
4:35 PM 63.5 °F - 48.6 °F 58% 29.92 in 10.0 mi NE 5.8 mph - N/A   Clear
4:55 PM 63.1 °F - 48.7 °F 59% 29.93 in 10.0 mi ENE 3.5 mph - N/A   Clear
5:15 PM 62.4 °F - 49.1 °F 62% 29.93 in 10.0 mi East 3.5 mph - N/A   Clear
5:35 PM 61.7 °F - 49.1 °F 63% 29.92 in 10.0 mi Calm Calm - N/A   Clear
5:55 PM 60.8 °F - 49.3 °F 66% 29.92 in 10.0 mi Calm Calm - N/A   Clear
6:15 PM 60.1 °F - 49.8 °F 69% 29.92 in 10.0 mi Calm Calm - N/A   Clear
6:35 PM 59.4 °F - 50.0 °F 71% 29.91 in 10.0 mi ENE 3.5 mph - N/A   Clear
6:55 PM 59.4 °F - 50.0 °F 71% 29.91 in 10.0 mi ENE 3.5 mph - N/A   Clear
7:15 PM 58.6 °F - 50.2 °F 73% 29.91 in 10.0 mi ENE 3.5 mph - N/A   Clear
7:35 PM 58.1 °F - 50.2 °F 75% 29.91 in 10.0 mi ENE 3.5 mph - N/A   Clear
7:55 PM 58.1 °F - 50.0 °F 74% 29.91 in 10.0 mi ENE 3.5 mph - N/A   Scattered Clouds
8:15 PM 58.6 °F - 49.5 °F 72% 29.91 in 10.0 mi East 3.5 mph - N/A   Scattered Clouds
8:35 PM 59.0 °F - 49.1 °F 70% 29.92 in 10.0 mi ENE 3.5 mph - N/A   Mostly Cloudy
8:55 PM 59.2 °F - 48.6 °F 68% 29.91 in 10.0 mi ENE 4.6 mph - N/A   Overcast
9:15 PM 59.5 °F - 48.6 °F 67% 29.91 in 10.0 mi East 4.6 mph - N/A   Overcast
9:35 PM 59.2 °F - 48.7 °F 68% 29.91 in 10.0 mi East 4.6 mph - N/A   Overcast
9:55 PM 59.0 °F - 48.6 °F 68% 29.92 in 10.0 mi East 4.6 mph - N/A   Mostly Cloudy
10:15 PM 59.0 °F - 48.7 °F 69% 29.92 in 10.0 mi ENE 4.6 mph - N/A   Mostly Cloudy
10:35 PM 59.0 °F - 48.9 °F 69% 29.92 in 10.0 mi East 3.5 mph - N/A   Mostly Cloudy
10:55 PM 58.8 °F - 49.1 °F 70% 29.93 in 10.0 mi Calm Calm - N/A   Mostly Cloudy
11:15 PM 58.5 °F - 49.1 °F 71% 29.92 in 10.0 mi Calm Calm - N/A   Scattered Clouds
11:35 PM 58.5 °F - 49.1 °F 71% 29.92 in 10.0 mi Calm Calm - N/A   Scattered Clouds
11:55 PM 58.3 °F - 49.3 °F 72% 29.91 in 10.0 mi Calm Calm - N/A   Mostly Cloudy